Location: Sortland
(68.7020°N, 15.4240°E)
Time: 09:27:31
(UTC+01:00)

Envisat - Pass Details

Date: 21 October 2019
Orbit: 764 x 766 km, 98.1° (Epoch: 12 November)

Event Time Altitude Azimuth Distance (km) Brightness Sun altitude
Rises 20:39:07 0° 219° (SW) 3,235 6.4 -20.3°
Reaches altitude 10° 20:42:08 10° 238° (WSW) 2,312 5.9 -20.6°
Maximum altitude 20:45:38 18° 282° (WNW) 1,805 5.8 -20.9°
Drops below altitude 10° 20:49:09 10° 326° (NW) 2,320 6.3 -21.2°
Sets 20:52:12 0° 345° (NNW) 3,250 6.9 -21.4°
